[[{"header":{"parameterUnit":"m.s-1","parameterCategory":1,"la1":30.2991,"la2":30.254,"lo1":-89.0895,"lo2":-89.0444,"dy":0.0017,"dx":0.0017,"nx":28,"ny":28,"refTime":"2025-01-11T03:00:00:Z","depth":0,"parameterNumber":2,"parameterNumberName":"U-component_of_WINDS"},"data":[0,0,0,0,0,0,0,0,0,0,0,0,0,0,0,0,0,0,0,0,0,0,0,0,0,0,0,0,0,0,0,0,0,0,0,0,0,0,0,0,0,0,0,0,0,0,0,0,0,0,0,0,0,0,0,0,0,0,1.1834,1.1834,0,1.184,1.184,1.184,1.1833,1.1832,1.1832,1.1832,1.1838,1.1839,1.1839,0,0,0,0,0,0,0,0,0,0,0,0,0,1.1816,1.1816,1.1834,1.1834,1.1834,1.184,1.184,1.184,1.1833,1.1832,1.1832,1.1832,1.1838,1.1839,1.1839,0,0,0,0,0,0,0,0,0,0,0,0,0,1.1823,1.1817,1.1834,1.1831,1.1831,1.184,1.184,1.184,1.1833,1.1832,1.1832,1.1832,1.1838,1.1839,1.1839,1.1852,0,0,1.1841,1.1842,0,0,0,0,0,0,0,0,1.1823,1.1824,1.1831,1.1831,1.1831,1.1835,1.1836,1.1844,1.1833,1.1832,1.1832,1.1831,1.1838,1.1838,1.1841,1.1852,1.1853,1.1841,1.1842,1.1842,1.1842,0,0,0,0,0,0,0,1.1822,1.1824,1.1836,1.1832,1.1831,1.183,1.183,1.1838,1.1837,1.1832,1.1832,1.1832,1.1838,1.184,1.1841,1.1853,1.1841,1.1842,1.1842,1.1843,1.1876,1.1876,0,0,0,0,0,0,1.1822,1.1823,1.1836,1.1837,1.1826,1.183,1.1831,1.1834,1.1837,1.1837,1.1833,1.1832,1.1839,1.184,1.1841,1.1856,1.1842,1.1843,1.1843,1.1875,1.1876,1.1876,0,0,0,0,0,0,1.1822,1.1823,1.1836,1.183,1.1831,1.1831,1.1835,1.1835,1.1837,1.1838,1.1838,1.1835,1.1839,1.184,1.1849,1.1856,1.1843,1.1844,1.1875,1.1875,1.1876,1.1886,0,0,0,0,0,0,1.1821,1.1823,1.1828,1.183,1.1832,1.1844,1.1835,1.1835,1.1838,1.1837,1.184,1.184,1.1838,1.1848,1.185,1.1857,1.1844,1.1874,1.1875,1.1876,1.1886,1.1887,1.1889,0,0,0,0,0,1.1821,1.183,1.1828,1.183,1.1837,1.1845,1.1846,1.1844,1.1839,1.1844,1.1844,1.184,1.1855,1.1849,1.1851,1.1858,1.1874,1.1875,1.1876,1.1885,1.1887,1.1889,0,0,0,0,0,0,1.1829,1.1831,1.1828,1.1839,1.1842,1.1843,1.1849,1.1846,1.1851,1.185,1.1847,1.1848,1.1858,1.1859,1.1853,1.1871,1.1864,1.1865,1.187,1.1872,1.1874,1.1873,1.1845,0,0,0,0,0,1.1832,1.1838,1.1839,1.1848,1.185,1.1849,1.1853,1.1851,1.1854,1.1855,1.1856,1.1859,1.1865,1.1868,1.1874,1.1886,1.1886,1.1891,1.1893,1.1895,1.1896,1.1903,1.1906,1.188,1.188,1.188,0,0,1.1838,1.184,1.1844,1.185,1.1852,1.1858,1.185,1.1857,1.1862,1.1856,1.1865,1.1866,1.1869,1.1881,1.1885,1.1882,1.1903,1.1896,1.1897,1.1898,1.1905,1.1907,1.1909,1.1881,1.188,1.188,0,0,1.1853,1.1855,1.1863,1.1866,1.1869,1.1869,1.1871,1.1873,1.1873,1.1883,1.1878,1.1884,1.1894,1.1896,1.1899,1.1916,1.1912,1.1917,1.1927,1.1934,1.1936,1.1938,1.1944,1.1946,1.1919,1.1919,1.1919,0,1.1861,1.187,1.1868,1.1875,1.1878,1.1873,1.1882,1.1884,1.1889,1.1891,1.1887,1.19,1.1901,1.1913,1.1917,1.192,1.1922,1.1917,1.1936,1.1937,1.1939,1.1945,1.1948,1.1919,1.1919,1.1919,1.1919,0,1.1879,1.1886,1.1892,1.1897,1.1901,1.1909,1.1908,1.1912,1.191,1.1911,1.192,1.1922,1.1928,1.1931,1.1929,1.1943,1.194,1.1936,1.1929,1.1942,1.1948,1.195,1.192,1.192,1.192,1.192,0,0,1.1899,1.1903,1.1906,1.1908,1.1912,1.1917,1.1925,1.193,1.1934,1.1938,1.1945,1.1953,1.1949,1.1952,1.1951,1.1957,1.1971,1.1952,1.1952,1.1956,1.1986,1.199,1.1993,1.1968,1.1969,1.1969,1.1986,0,1.1914,1.1928,1.1927,1.194,1.1946,1.1942,1.1949,1.1952,1.1952,1.1958,1.1959,1.1965,1.1959,1.1961,1.1967,1.1968,1.1977,1.1967,1.1975,1.1975,1.1974,1.1995,1.1999,1.2015,1.1988,1.1989,1.1989,0,1.1934,1.1938,1.1952,1.1955,1.1958,1.1964,1.197,1.1975,1.1979,1.1979,1.1983,1.198,1.1988,1.1981,1.1993,1.1986,1.1989,1.199,1.1991,1.1992,1.1983,1.1997,1.202,1.2022,1.1992,1.1992,1.1992,0,1.1948,1.1957,1.1967,1.1969,1.1973,1.1977,1.1979,1.1983,1.1986,1.1991,1.1994,1.1999,1.2003,1.2007,1.2007,1.2001,1.2019,1.2011,1.2019,1.2019,1.2023,1.2023,1.2047,1.2025,1.2025,1.2025,1.2025,0,1.1965,1.1973,1.1973,1.1979,1.1989,1.1987,1.1997,1.1998,1.2001,1.2008,1.2004,1.201,1.2009,1.2015,1.2015,1.2025,1.2026,1.2027,1.2027,1.2027,1.2027,1.203,1.2029,1.2026,1.2025,1.2025,1.2025,0,1.1982,1.1982,1.1992,1.1995,1.1996,1.2003,1.2006,1.2012,1.2012,1.202,1.2022,1.2023,1.203,1.203,1.2038,1.2038,1.205,1.2049,1.2049,1.2049,1.2057,1.2056,1.2084,1.2087,1.2063,1.2063,1.2063,0,1.1993,1.1999,1.2003,1.2007,1.2009,1.2016,1.202,1.2019,1.2023,1.2028,1.2033,1.204,1.2046,1.2057,1.2059,1.2065,1.2064,1.2073,1.2065,1.2065,1.2064,1.2064,1.2065,1.2075,1.2075,1.2075,1.2075,0,1.2013,1.2012,1.2018,1.2024,1.2029,1.2033,1.2038,1.2041,1.2041,1.2046,1.2053,1.2057,1.2066,1.2073,1.2079,1.2081,1.2078,1.2078,1.208,1.2081,1.2081,1.2081,1.2054,1.2077,1.2077,1.2077,1.2077,1.2077,1.2027,1.2033,1.2037,1.2043,1.2047,1.2051,1.2056,1.2058,1.2064,1.2071,1.207,1.2078,1.2082,1.209,1.2093,1.21,1.2096,1.21,1.2101,1.2101,1.2103,1.208,1.2101,1.2101,1.2101,1.2101,1.2101,0,1.2047,1.2049,1.2056,1.2062,1.2067,1.2064,1.2069,1.2073,1.2081,1.2085,1.209,1.2099,1.2106,1.2108,1.2115,1.212,1.2119,1.2122,1.2121,1.2122,1.2105,1.2102,1.2122,1.2122,1.2122,1.2122,1.2122,1.2122,1.2058,1.2068,1.2068,1.208,1.2082,1.2091,1.2094,1.2098,1.2101,1.2111,1.2116,1.2118,1.2121,1.2128,1.2135,1.2135,1.2138,1.2142,1.2142,1.2125,1.2123,1.2121,1.2119,1.2142,1.2142,1.2158,1.2158,1.2159]},{"header":{"parameterUnit":"m.s-1","parameterCategory":1,"la1":30.2991,"la2":30.254,"lo1":-89.0895,"lo2":-89.0444,"dy":0.0017,"dx":0.0017,"nx":28,"ny":28,"refTime":"2025-01-11T03:00:00:Z","depth":0,"parameterNumber":3,"parameterNumberName":"V-component_of_WINDS"},"data":[0,0,0,0,0,0,0,0,0,0,0,0,0,0,0,0,0,0,0,0,0,0,0,0,0,0,0,0,0,0,0,0,0,0,0,0,0,0,0,0,0,0,0,0,0,0,0,0,0,0,0,0,0,0,0,0,0,0,-1.5476,-1.5477,0,-1.5548,-1.5549,-1.555,-1.5572,-1.5571,-1.5571,-1.5571,-1.5643,-1.5646,-1.5648,0,0,0,0,0,0,0,0,0,0,0,0,0,-1.5358,-1.536,-1.5476,-1.5477,-1.5478,-1.5548,-1.5549,-1.555,-1.5572,-1.5571,-1.5571,-1.5571,-1.5643,-1.5645,-1.5648,0,0,0,0,0,0,0,0,0,0,0,0,0,-1.5417,-1.5361,-1.5476,-1.5497,-1.55,-1.5548,-1.5549,-1.555,-1.5572,-1.5571,-1.5571,-1.557,-1.5642,-1.5645,-1.5648,-1.568,0,0,-1.5659,-1.566,0,0,0,0,0,0,0,0,-1.5414,-1.5422,-1.5493,-1.5496,-1.5499,-1.555,-1.5534,-1.5594,-1.5572,-1.5544,-1.5571,-1.557,-1.5613,-1.5619,-1.5633,-1.5683,-1.5686,-1.5659,-1.5661,-1.5663,-1.5664,0,0,0,0,0,0,0,-1.541,-1.5419,-1.5504,-1.5494,-1.5498,-1.5503,-1.5511,-1.5545,-1.5581,-1.5547,-1.5549,-1.5557,-1.5614,-1.563,-1.5635,-1.5688,-1.5659,-1.5662,-1.5664,-1.5665,-1.577,-1.5771,0,0,0,0,0,0,-1.5402,-1.5415,-1.5502,-1.5507,-1.5454,-1.5506,-1.5515,-1.5534,-1.558,-1.5587,-1.5557,-1.5558,-1.5624,-1.5631,-1.5638,-1.568,-1.5663,-1.5666,-1.5668,-1.5769,-1.577,-1.5771,0,0,0,0,0,0,-1.5399,-1.541,-1.5499,-1.5461,-1.5473,-1.5509,-1.553,-1.5536,-1.5552,-1.5588,-1.5595,-1.5567,-1.5624,-1.5633,-1.567,-1.5682,-1.5667,-1.567,-1.5768,-1.5769,-1.5771,-1.5762,0,0,0,0,0,0,-1.5396,-1.5409,-1.542,-1.5462,-1.5475,-1.553,-1.5531,-1.5538,-1.5558,-1.5559,-1.5599,-1.5605,-1.5624,-1.5665,-1.5673,-1.5687,-1.5673,-1.5767,-1.5769,-1.577,-1.5762,-1.5763,-1.5764,0,0,0,0,0,-1.5392,-1.5414,-1.5421,-1.5431,-1.5491,-1.5531,-1.5538,-1.5561,-1.5558,-1.5571,-1.5595,-1.5604,-1.5679,-1.5668,-1.5678,-1.5693,-1.5767,-1.5768,-1.577,-1.5761,-1.5763,-1.5764,0,0,0,0,0,0,-1.5373,-1.542,-1.5428,-1.5465,-1.5494,-1.5534,-1.5551,-1.5561,-1.5591,-1.5591,-1.5617,-1.5626,-1.5662,-1.5681,-1.5668,-1.5727,-1.5724,-1.5727,-1.5713,-1.5715,-1.5716,-1.5711,-1.5676,0,0,0,0,0,-1.5373,-1.5402,-1.5441,-1.547,-1.5484,-1.5515,-1.5533,-1.5548,-1.5579,-1.5591,-1.5618,-1.5647,-1.5678,-1.5697,-1.5727,-1.5764,-1.5775,-1.5779,-1.5781,-1.5782,-1.5785,-1.5808,-1.5811,-1.5776,-1.5776,-1.5776,0,0,-1.5374,-1.5403,-1.5419,-1.5467,-1.5491,-1.5521,-1.5525,-1.5555,-1.5578,-1.5595,-1.5633,-1.5653,-1.5688,-1.5726,-1.5744,-1.5743,-1.5797,-1.5784,-1.5784,-1.5787,-1.581,-1.5813,-1.5816,-1.5778,-1.5777,-1.5777,0,0,-1.539,-1.5414,-1.5442,-1.5467,-1.5504,-1.5525,-1.5532,-1.5571,-1.5586,-1.5624,-1.5639,-1.5666,-1.5718,-1.5743,-1.5762,-1.5791,-1.58,-1.58,-1.5806,-1.5829,-1.5832,-1.5834,-1.5846,-1.585,-1.5803,-1.5803,-1.5803,0,-1.5386,-1.5431,-1.5455,-1.5485,-1.5507,-1.5525,-1.5554,-1.5577,-1.5622,-1.5636,-1.5635,-1.5702,-1.5727,-1.5772,-1.5779,-1.5794,-1.5803,-1.5795,-1.5829,-1.5832,-1.5835,-1.5847,-1.5851,-1.5802,-1.5802,-1.5802,-1.5802,0,-1.5425,-1.5456,-1.5474,-1.5518,-1.5542,-1.5571,-1.56,-1.5621,-1.5634,-1.5656,-1.5695,-1.5726,-1.5763,-1.5775,-1.5788,-1.5823,-1.5821,-1.5824,-1.5821,-1.5838,-1.585,-1.5854,-1.5802,-1.5802,-1.5802,-1.5802,0,0,-1.543,-1.5489,-1.5496,-1.5517,-1.5561,-1.5585,-1.5616,-1.5654,-1.5672,-1.5703,-1.5731,-1.5775,-1.5779,-1.5801,-1.5817,-1.5837,-1.586,-1.5838,-1.5839,-1.5842,-1.5903,-1.5901,-1.5906,-1.5867,-1.5868,-1.5868,-1.5901,0,-1.5453,-1.551,-1.5533,-1.5579,-1.561,-1.5629,-1.5656,-1.5686,-1.5708,-1.5737,-1.576,-1.5792,-1.5793,-1.5807,-1.5828,-1.5853,-1.5873,-1.5851,-1.5894,-1.5895,-1.5885,-1.5912,-1.591,-1.5939,-1.5905,-1.5906,-1.5907,0,-1.5487,-1.552,-1.5569,-1.5611,-1.5625,-1.5649,-1.5687,-1.5714,-1.5749,-1.5764,-1.579,-1.5805,-1.584,-1.5834,-1.5883,-1.5867,-1.5886,-1.5902,-1.5903,-1.5909,-1.5902,-1.592,-1.5948,-1.5953,-1.5914,-1.5913,-1.5912,0,-1.5488,-1.5544,-1.5582,-1.5599,-1.5649,-1.5666,-1.5688,-1.5722,-1.5744,-1.5778,-1.5793,-1.5829,-1.5849,-1.5877,-1.5903,-1.5896,-1.595,-1.5946,-1.5963,-1.5963,-1.5974,-1.5973,-1.6008,-1.5984,-1.5984,-1.5984,-1.5984,0,-1.5511,-1.5541,-1.5583,-1.5606,-1.5641,-1.5668,-1.5702,-1.5725,-1.5756,-1.5785,-1.5803,-1.5829,-1.5861,-1.5892,-1.5912,-1.595,-1.5958,-1.5972,-1.5977,-1.5971,-1.5969,-1.5984,-1.5983,-1.5985,-1.5985,-1.5985,-1.5984,0,-1.5518,-1.5547,-1.559,-1.5635,-1.5647,-1.567,-1.5709,-1.5733,-1.5755,-1.5792,-1.5802,-1.5837,-1.5875,-1.5903,-1.5951,-1.5964,-1.6006,-1.601,-1.5994,-1.5997,-1.6014,-1.6013,-1.606,-1.6069,-1.6038,-1.6038,-1.6038,0,-1.5532,-1.5555,-1.5603,-1.5625,-1.5646,-1.5679,-1.5703,-1.5732,-1.5755,-1.5799,-1.5818,-1.5857,-1.5889,-1.5949,-1.5979,-1.6016,-1.6023,-1.6037,-1.6029,-1.6023,-1.6025,-1.6024,-1.6028,-1.6038,-1.6039,-1.6039,-1.6039,0,-1.5553,-1.5567,-1.56,-1.564,-1.5668,-1.5699,-1.5732,-1.5748,-1.5782,-1.5808,-1.5848,-1.5873,-1.5924,-1.5963,-1.6004,-1.6026,-1.6039,-1.6042,-1.6048,-1.6042,-1.6033,-1.604,-1.5999,-1.604,-1.604,-1.604,-1.604,-1.604,-1.5565,-1.5588,-1.5626,-1.5663,-1.5691,-1.5722,-1.5747,-1.5774,-1.5808,-1.5852,-1.5866,-1.5908,-1.5945,-1.6001,-1.6025,-1.6057,-1.6058,-1.6066,-1.6069,-1.6071,-1.6071,-1.6027,-1.6065,-1.6065,-1.6065,-1.6065,-1.6065,0,-1.5589,-1.5615,-1.5649,-1.5695,-1.5725,-1.5735,-1.5772,-1.5796,-1.5832,-1.5866,-1.5899,-1.5945,-1.5984,-1.6018,-1.6059,-1.6079,-1.6086,-1.6089,-1.6088,-1.6094,-1.6068,-1.6059,-1.6083,-1.6083,-1.6083,-1.6083,-1.6083,-1.6083,-1.5605,-1.5645,-1.5664,-1.5719,-1.5745,-1.5787,-1.5807,-1.5836,-1.5864,-1.5915,-1.5948,-1.597,-1.6005,-1.6049,-1.6085,-1.6094,-1.6109,-1.6111,-1.6122,-1.6097,-1.6095,-1.6093,-1.6085,-1.6113,-1.6113,-1.6145,-1.6145,-1.6145]}]]